Regional Weather Roundup
Issued by NWS Sioux Falls, SD

Home | Current Version | Previous Version | Text Only | Print | Product List | Glossary On
Versions: 1 2 3 4 5 6 7 8 9 10 11 12 13 14 15 16 17 18 19 20 21 22 23 24 25 26 27 28 29 30 31 32 33 34 35 36 37 38 39 40 41 42 43 44 45 46 47 48 49 50
000
ASUS43 KFSD 210510
RWRFSD

WEATHER ROUNDUP FOR SE SOUTH DAKOTA/SW MINNESOTA/NW IOWA
NATIONAL WEATHER SERVICE SIOUX FALLS SD
1100 PM CST FRI JAN 20 2017

NOTE: "FAIR" INDICATES FEW OR NO CLOUDS BELOW 12,000 FEET WITH NO
SIGNIFICANT WEATHER AND OR OBSTRUCTIONS TO VISIBILITY.


SDZ038>040-050-052>070-210600-
SOUTHEAST SOUTH DAKOTA

CITY           SKY/WX    TMP DP  RH WIND       PRES   REMARKS
BROOKINGS      FOG       36  35  96 SE15      29.40S VSB 1/2
CHAMBERLAIN    CLOUDY    33  31  94 CALM      29.35S
HURON          CLOUDY    38  38 100 S13       29.35S FOG
MADISON        CLOUDY    36  36 100 SE12        N/A
MITCHELL       CLOUDY    39  39 100 S10       29.38S FOG
SIOUX FALLS    LGT RAIN  38  38 100 SE8       29.41F VSB 1/2
WINNER         CLOUDY    34  30  85 W5        29.35R WCI  30
YANKTON        CLOUDY    39  37  93 SE7       29.38F
$$

MNZ071-072-080-081-089-090-097-098-210600-
SOUTHWEST MINNESOTA

CITY           SKY/WX    TMP DP  RH WIND       PRES   REMARKS
FAIRMONT       FOG       34  33  96 SE9       29.49F VSB 1/2 WCI  27
JACKSON        FOG       32  32 100 SE7       29.47F VSB 1/2 WCI  26
LUVERNE        DRIZZLE   36  34  93 SE6       29.43F
MARSHALL       CLOUDY    35  34  96 SE8       29.45S FOG     WCI  29
MONTEVIDEO     CLOUDY    34  34 100 S12       29.47S FOG     WCI  25
PIPESTONE      FOG       36  36 100 SE9       29.42S VSB 1/4
REDWOOD FALLS  FOG       34  33  96 SE9       29.47F VSB 1   WCI  27
TRACY          CLOUDY    36  36 100 S9        29.45S
WINDOM         FOG       36  34  93 SE9       29.46F VSB 3/4
WORTHINGTON    FOG       34  34 100 SE9       29.45F VSB 1/2 WCI  27
$$

IAZ001>003-012>014-020>022-031-032-NEZ013-014-SDZ071-210600-
NORTHWEST IOWA

CITY           SKY/WX    TMP DP  RH WIND       PRES   REMARKS
CHEROKEE       CLOUDY    36  36 100 CALM      29.45S
DENISON        CLOUDY    39  39 100 CALM      29.41F FOG
ESTHERVILLE    FOG       33  33 100 SE7       29.47F VSB 1/4 WCI  27
LE MARS        CLOUDY    37  37 100 SE6       29.43F
ORANGE CITY    CLOUDY    36  36 100 SE7       29.43S FOG
SHELDON        FOG       36  36 100 SE9       29.42F VSB 3/4
SIOUX CITY     CLOUDY    39  38  96 SE7       29.41F FOG
SPENCER        CLOUDY    35  35 100 E8        29.45F FOG     WCI  29
STORM LAKE     FOG       36  36 100 SE8       29.44F VSB<1/4
$$

ABBREVIATIONS USED IN REMARKS
   TC - TEMPERATURE IN CELSIUS
  WCI - WIND CHILL INDEX
   HX - HEAT INDEX
  VSB - VISIBILITY





USA.gov is the U.S. government's official web portal to all federal, state and local government web resources and services.